Погода в Лимоне-Суле-Гарде

Италия     45°48′52″N   10°47′29″E
темп.,
°C
ветер,
м/с
пор.,
м/с
влажн.,
%
обл.,
%
осадки,
мм/ч
давл.,
гПа
погр.,
м
24 октября, вс
вс2423:00+9ссв447235 0.0 102895
02:00+8ссв457342 0.0 1028118
05:00+7ссв567747 0.0 1028147
08:00+7ссв457211 0.0 1028149
11:00+11св33550 0.0 1029420
14:00+12ююз11560 0.0 1028504
17:00+11ююз22730 0.0 1027212
20:00+8с1183100 0.0 102795
25 октября, пн
пн2523:00+8ссв2381100 0.0 1027122
02:00+8ссв3376100 0.0 1026135
05:00+7ссв4472100 0.0 1025140
08:00+7ссв3468100 0.0 1024127
11:00+10ссв225494 0.0 1024263
14:00+10ююз2164100 0.0 1023327
17:00+10юз1176100 0.0 1022122
20:00+9всв1177100 0.0 102296
26 октября, вт
вт2623:00+8юз0183100 0.0 1023180
02:00+7ссв22815 0.0 102385
05:00+6ссв44755 0.0 1022117
08:00+6ссв45745 0.0 1022129
11:00+11св33505 0.0 1022361
14:00+13ююз21483 0.0 1021503
17:00+11ююз11660 0.0 1021141
20:00+8с11720 0.0 102359
27 октября, ср
ср2723:00+8ссв34755 0.0 102598
02:00+7ссв56738 0.0 1026133
05:00+7ссв577278 0.0 1026133
08:00+7ссв567371 0.0 1026136
11:00+12ссв445521 0.0 1026343
14:00+14ююз225035 0.0 1026590
17:00+11ю0160100 0.0 102565
20:00+9с226664 0.0 102650
28 октября, чт
чт2823:00+8ссв44755 0.0 102687
02:00+8ссв56791 0.0 1026122
05:00+7ссв568069 0.0 1026124
08:00+7ссв567994 0.0 1026129
11:00+12св44575 0.0 1024349
14:00+13ююз22545 0.0 1023529
17:00+12ююз11625 0.0 1022126
20:00+9ссв22717 0.0 102348